#timestamp,LO_Frequency,Hit,StdDev 
1581192615.2,286047000.9,P
1581192635.1,286047001.1,P
1581192636.0,286047001.1,P
1581192655.8,286047000.0,N
1581192675.6,286047001.0,N
1581192695.5,286047000.8,N
1581192715.3,286047000.9,N
1581192735.2,286047002.4,Y
1581192755.9,286047001.4,P
1581192775.7,286047002.9,P
1581192795.6,286047005.1,P
1581192815.4,286047005.0,Y
1581192835.2,286047001.4,P
1581192855.1,286047002.8,P
1581192856.0,286047002.8,P
1581192875.8,286046999.9,N
1581192895.7,286047000.8,N
1581192915.5,286046996.7,Y
1581192935.3,286046993.6,P
1581192955.2,286046996.3,N
1581192975.0,286046995.9,N
1581192975.9,286046995.9,N
1581192995.7,286046994.9,N
1581193015.6,286046997.9,N
1581193035.4,286046995.3,N
1581193055.3,286046996.8,N
1581193075.1,286046995.2,N
1581193076.0,286046995.2,N
1581193095.8,286046995.2,N
1581193115.7,286046996.0,N
1581193135.5,286046996.0,N
1581193155.3,286046997.8,N
1581193175.2,286046997.3,N
1581193195.0,286046999.2,N
1581193195.9,286046999.2,N
1581193215.8,286046996.9,N
1581193235.6,286046995.4,N
1581193255.4,286046997.6,N
1581193275.3,286046997.6,N
1581193295.1,286046995.3,N
1581193315.8,286046995.2,N
1581193335.7,286046997.9,N
1581193355.5,286046997.9,N
1581193375.4,286046995.0,N
1581193395.2,286046997.8,N
1581193415.0,286046997.7,N
1581193415.9,286046997.7,N
1581193435.8,286046997.3,N
1581193455.6,286046997.4,N
1581193475.4,286046997.5,N
1581193495.3,286046997.2,N
1581193515.1,286046997.0,N
1581193535.9,286046999.6,N
1581193555.7,286046996.9,N
1581193575.5,286046997.0,N
1581193595.4,286046999.0,N
1581193615.2,286046998.7,N
1581193635.0,286046998.5,N
1581193635.9,286046998.5,N
1581193655.8,286047001.1,N
1581193675.6,286047001.0,N
1581193695.5,286047000.3,N
1581193715.3,286046998.3,N
1581193735.1,286047000.0,N
1581193755.9,286047000.9,N
1581193775.7,286047000.9,N
1581193795.5,286046999.7,N
1581193815.4,286046999.9,N
1581193835.2,286047000.3,N
1581193855.1,286047000.5,N
1581193856.0,286047000.5,N
1581193875.8,286046998.4,N
1581193895.6,286047000.6,N
1581193915.5,286047000.7,N
1581193935.3,286046999.9,N
1581193955.1,286047000.6,N
1581193975.9,286046999.9,N
1581193995.7,286047000.2,N
1581194015.6,286047000.3,N
1581194035.4,286047000.3,N
1581194055.2,286047000.3,N
1581194075.1,286047002.4,N
1581194076.0,286047002.4,N
1581194095.8,286047002.6,N
1581194115.6,286047003.9,Y
1581194135.5,286047003.1,P
1581194155.3,286047003.6,N
1581194175.2,286047002.9,N
1581194195.9,286047003.0,N
1581194215.7,286047005.2,Y
1581194235.6,286047001.8,P
1581194255.4,286047001.9,P
1581194275.2,286047001.8,P
1581194295.1,286047002.9,Y
1581194296.0,286047002.9,P
1581194315.8,286047003.8,P
1581194335.7,286047003.0,P
1581194355.5,286047005.2,Y
1581194375.3,286047001.5,P
1581194395.2,286047001.3,N
1581194415.0,286047001.7,N
1581194415.9,286047001.7,N
1581194435.8,286047002.3,Y
1581194455.6,286047001.2,P
1581194475.4,286046999.0,P
1581194495.3,286046999.5,N
1581194515.1,286047001.0,N
1581194535.9,286047000.0,N
1581194555.7,286047001.1,N
1581194575.5,286047000.2,N
1581194595.4,286047001.6,N
1581194615.2,286047002.3,N
1581194635.0,286047003.9,Y
1581194636.0,286047003.9,P
1581194655.8,286046999.7,N
1581194675.6,286047002.2,N
1581194695.5,286047001.4,N
1581194715.3,286047006.0,Y
1581194735.1,286047001.9,P
1581194755.9,286047001.5,P
1581194775.7,286047002.0,P
1581194795.6,286047004.3,Y
1581194815.4,286047002.8,P
1581194835.2,286047002.5,P
1581194855.1,286047001.6,P
1581194856.0,286047001.6,Y
1581194875.8,286047000.6,P
1581194895.7,286047000.3,N
1581194915.5,286047001.1,N
1581194935.3,286047000.5,N
1581194955.2,286047000.5,N
1581194975.9,286047000.9,N
1581194995.7,286046999.9,N
1581195015.6,286047000.3,N
1581195035.4,286047002.7,Y
1581195055.3,286047002.6,P
1581195075.1,286047002.7,N
1581195076.0,286047002.7,N
1581195095.8,286047002.4,N
1581195115.7,286047002.4,Y
1581195135.5,286046999.2,P
1581195155.3,286046997.0,N
1581195175.2,286046997.8,N
1581195195.0,286046996.7,N
1581195195.9,286046996.7,N
1581195215.8,286046998.3,N
1581195235.6,286046998.2,N
1581195255.4,286047000.8,N
1581195275.3,286047001.0,N
1581195295.1,286046999.0,N
1581195315